When you browse on this site, cookies collect data to enhance your experience and personalize the content and advertising you see.
Visit our Privacy Policy to learn more. By continuing to use the site, you agree to this use of cookies and data.
  • en Suisse
  • Liste des pays
  • À 7 jours
  • Température de l'eau
  • Carte satellitaire
  • Carte météo
  • Widgets météo
  • user-avatar
    Se connecter

    Météo par heure à Zavalovo

    Ce jour, 20 Juin, Jeudi

    Heure Température Précipitation Vent Pression Humidité
    00:00 +18°C° 0 mm 1 m/s 749 mmHg 80%
    01:00 +16°C° 0 mm 1 m/s 750 mmHg 81%
    02:00 +16°C° 0 mm 1 m/s 750 mmHg 82%
    03:00 +18°C° 0 mm 1 m/s 750 mmHg 82%
    04:00 +19°C° 0 mm 1 m/s 750 mmHg 81%
    05:00 +18°C° 0 mm 0 m/s 750 mmHg 81%
    06:00 +19°C° 0 mm 0 m/s 750 mmHg 75%
    07:00 +21°C° 0 mm 0 m/s 750 mmHg 70%
    08:00 +22°C° 0 mm 0 m/s 750 mmHg 65%
    09:00 +24°C° 0 mm 0 m/s 750 mmHg 61%
    10:00 +25°C° 0 mm 0 m/s 750 mmHg 56%
    11:00 +26°C° 0 mm 0 m/s 750 mmHg 52%
    12:00 +28°C° 0 mm 1 m/s 750 mmHg 50%
    13:00 +28°C° 0 mm 1 m/s 750 mmHg 48%
    14:00 +28°C° 0 mm 1 m/s 750 mmHg 47%
    15:00 +28°C° 0 mm 1 m/s 750 mmHg 52%
    16:00 +28°C° 0 mm 1 m/s 749 mmHg 56%
    17:00 +28°C° 0 mm 1 m/s 749 mmHg 61%
    18:00 +26°C° 0 mm 1 m/s 749 mmHg 65%
    19:00 +24°C° 0 mm 1 m/s 749 mmHg 69%
    20:00 +22°C° 0 mm 1 m/s 749 mmHg 72%
    21:00 +21°C° 0 mm 1 m/s 750 mmHg 75%
    22:00 +20°C° 0 mm 1 m/s 750 mmHg 77%
    23:00 +19°C° 0 mm 1 m/s 750 mmHg 79%

    Demain, 21 Juin, Vendredi

    Heure Température Précipitation Vent Pression Humidité
    00:00 +19°C° 0 mm 1 m/s 750 mmHg 80%
    01:00 +19°C° 0 mm 1 m/s 750 mmHg 81%
    02:00 +18°C° 0 mm 1 m/s 751 mmHg 82%
    03:00 +19°C° 0 mm 1 m/s 751 mmHg 83%
    04:00 +19°C° 0 mm 1 m/s 751 mmHg 83%
    05:00 +20°C° 0 mm 1 m/s 751 mmHg 84%
    06:00 +21°C° 0 mm 2 m/s 751 mmHg 79%
    07:00 +23°C° 0 mm 2 m/s 751 mmHg 75%
    08:00 +25°C° 0 mm 2 m/s 751 mmHg 70%
    09:00 +26°C° 0 mm 3 m/s 751 mmHg 67%
    10:00 +27°C° 0 mm 3 m/s 751 mmHg 63%
    11:00 +27°C° 0 mm 4 m/s 751 mmHg 59%
    12:00 +28°C° 0 mm 4 m/s 750 mmHg 58%
    13:00 +28°C° 0 mm 4 m/s 750 mmHg 58%
    14:00 +28°C° 0 mm 4 m/s 750 mmHg 58%
    15:00 +28°C° 0 mm 3 m/s 750 mmHg 62%
    16:00 +28°C° 0 mm 3 m/s 750 mmHg 67%
    17:00 +27°C° 0 mm 3 m/s 750 mmHg 71%
    18:00 +26°C° 0.1 mm 3 m/s 750 mmHg 76%
    19:00 +24°C° 0.1 mm 3 m/s 750 mmHg 80%
    20:00 +21°C° 0.1 mm 3 m/s 750 mmHg 84%
    21:00 +21°C° 0 mm 3 m/s 750 mmHg 85%
    22:00 +20°C° 0 mm 3 m/s 750 mmHg 86%
    23:00 +20°C° 0 mm 3 m/s 750 mmHg 88%

    Après-demain, 22 Juin, Samedi

    Heure Température Précipitation Vent Pression Humidité
    00:00 +19°C° 0 mm 3 m/s 750 mmHg 89%
    01:00 +19°C° 0 mm 3 m/s 750 mmHg 90%
    02:00 +18°C° 0 mm 3 m/s 750 mmHg 92%
    03:00 +19°C° 0 mm 3 m/s 750 mmHg 91%
    04:00 +19°C° 0 mm 3 m/s 750 mmHg 90%
    05:00 +20°C° 0 mm 3 m/s 750 mmHg 90%
    06:00 +21°C° 0 mm 3 m/s 750 mmHg 85%
    07:00 +23°C° 0 mm 4 m/s 750 mmHg 81%
    08:00 +25°C° 0 mm 4 m/s 751 mmHg 76%
    09:00 +27°C° 0.1 mm 4 m/s 750 mmHg 72%
    10:00 +28°C° 0.1 mm 5 m/s 750 mmHg 67%
    11:00 +29°C° 0.1 mm 5 m/s 750 mmHg 62%
    12:00 +29°C° 0 mm 5 m/s 750 mmHg 61%
    13:00 +29°C° 0 mm 5 m/s 750 mmHg 61%
    14:00 +29°C° 0 mm 5 m/s 750 mmHg 60%
    15:00 +29°C° 0 mm 5 m/s 749 mmHg 63%
    16:00 +28°C° 0 mm 4 m/s 749 mmHg 67%
    17:00 +28°C° 0 mm 4 m/s 749 mmHg 71%
    18:00 +26°C° 0 mm 4 m/s 749 mmHg 76%
    19:00 +25°C° 0 mm 3 m/s 750 mmHg 80%
    20:00 +22°C° 0 mm 3 m/s 750 mmHg 85%
    21:00 +22°C° 0 mm 3 m/s 750 mmHg 87%
    22:00 +21°C° 0 mm 3 m/s 750 mmHg 88%
    23:00 +20°C° 0 mm 2 m/s 750 mmHg 90%

    23 Juin, Dimanche

    Heure Température Précipitation Vent Pression Humidité
    00:00 +20°C° 0 mm 2 m/s 750 mmHg 91%
    01:00 +19°C° 0 mm 2 m/s 750 mmHg 92%
    02:00 +19°C° 0 mm 2 m/s 750 mmHg 92%
    03:00 +19°C° 0 mm 2 m/s 750 mmHg 91%
    04:00 +20°C° 0 mm 2 m/s 750 mmHg 90%
    05:00 +20°C° 0 mm 2 m/s 750 mmHg 89%
    06:00 +23°C° 0.2 mm 2 m/s 750 mmHg 85%
    07:00 +24°C° 0.2 mm 2 m/s 751 mmHg 81%
    08:00 +26°C° 0.2 mm 2 m/s 751 mmHg 77%
    09:00 +26°C° 1.2 mm 2 m/s 751 mmHg 74%
    10:00 +27°C° 1.2 mm 3 m/s 751 mmHg 72%
    11:00 +28°C° 1.2 mm 3 m/s 751 mmHg 69%
    12:00 +28°C° 1 mm 3 m/s 751 mmHg 69%
    13:00 +28°C° 1 mm 3 m/s 751 mmHg 69%
    14:00 +28°C° 1 mm 3 m/s 751 mmHg 69%
    15:00 +27°C° 0.9 mm 3 m/s 751 mmHg 74%
    16:00 +26°C° 0.9 mm 4 m/s 751 mmHg 78%
    17:00 +25°C° 0.9 mm 4 m/s 751 mmHg 83%
    18:00 +23°C° 0.2 mm 4 m/s 751 mmHg 84%
    19:00 +21°C° 0.2 mm 3 m/s 752 mmHg 86%
    20:00 +20°C° 0.2 mm 3 m/s 752 mmHg 87%
    21:00 +19°C° 0 mm 3 m/s 752 mmHg 86%
    22:00 +18°C° 0 mm 3 m/s 752 mmHg 85%
    23:00 +18°C° 0 mm 3 m/s 752 mmHg 84%

    24 Juin, Lundi

    Heure Température Précipitation Vent Pression Humidité
    00:00 +17°C° 0 mm 3 m/s 752 mmHg 83%
    01:00 +16°C° 0 mm 3 m/s 753 mmHg 82%
    02:00 +16°C° 0 mm 3 m/s 753 mmHg 81%
    03:00 +16°C° 0 mm 3 m/s 753 mmHg 81%
    04:00 +16°C° 0 mm 3 m/s 753 mmHg 81%
    05:00 +16°C° 0 mm 3 m/s 753 mmHg 81%
    06:00 +17°C° 0 mm 4 m/s 754 mmHg 77%
    07:00 +18°C° 0 mm 4 m/s 754 mmHg 73%
    08:00 +19°C° 0 mm 4 m/s 754 mmHg 69%
    09:00 +20°C° 0 mm 5 m/s 754 mmHg 65%
    10:00 +21°C° 0 mm 5 m/s 754 mmHg 62%
    11:00 +22°C° 0 mm 5 m/s 754 mmHg 58%
    12:00 +23°C° 0 mm 5 m/s 754 mmHg 58%
    13:00 +23°C° 0 mm 5 m/s 754 mmHg 58%
    14:00 +23°C° 0 mm 5 m/s 754 mmHg 58%
    15:00 +23°C° 0 mm 4 m/s 754 mmHg 61%
    16:00 +23°C° 0 mm 4 m/s 754 mmHg 63%
    17:00 +22°C° 0 mm 3 m/s 754 mmHg 66%
    18:00 +21°C° 0 mm 3 m/s 754 mmHg 70%
    19:00 +19°C° 0 mm 3 m/s 754 mmHg 73%
    20:00 +17°C° 0 mm 2 m/s 754 mmHg 76%
    21:00 +17°C° 0 mm 2 m/s 754 mmHg 74%
    22:00 +16°C° 0 mm 2 m/s 755 mmHg 71%
    23:00 +15°C° 0 mm 2 m/s 755 mmHg 69%

    25 Juin, Mardi

    Heure Température Précipitation Vent Pression Humidité
    00:00 +15°C° 0 mm 2 m/s 755 mmHg 73%
    01:00 +15°C° 0 mm 2 m/s 755 mmHg 76%
    02:00 +14°C° 0 mm 2 m/s 755 mmHg 80%
    03:00 +14°C° 0 mm 2 m/s 755 mmHg 80%
    04:00 +15°C° 0 mm 2 m/s 755 mmHg 80%
    05:00 +15°C° 0 mm 2 m/s 755 mmHg 80%
    06:00 +17°C° 0 mm 2 m/s 755 mmHg 76%
    07:00 +19°C° 0 mm 2 m/s 755 mmHg 71%
    08:00 +20°C° 0 mm 3 m/s 755 mmHg 67%
    09:00 +21°C° 0 mm 2 m/s 755 mmHg 62%
    10:00 +23°C° 0 mm 2 m/s 755 mmHg 58%
    11:00 +24°C° 0 mm 2 m/s 755 mmHg 53%
    12:00 +24°C° 0 mm 2 m/s 755 mmHg 53%
    13:00 +24°C° 0 mm 2 m/s 754 mmHg 53%
    14:00 +24°C° 0 mm 1 m/s 754 mmHg 53%
    15:00 +24°C° 0 mm 1 m/s 754 mmHg 55%
    16:00 +24°C° 0 mm 1 m/s 754 mmHg 57%
    17:00 +23°C° 0 mm 1 m/s 753 mmHg 59%
    18:00 +22°C° 0 mm 1 m/s 753 mmHg 65%
    19:00 +20°C° 0 mm 1 m/s 753 mmHg 71%
    20:00 +18°C° 0 mm 1 m/s 753 mmHg 77%
    21:00 +16°C° 0 mm 1 m/s 753 mmHg 78%
    22:00 +14°C° 0 mm 0 m/s 753 mmHg 80%
    23:00 +14°C° 0 mm 0 m/s 753 mmHg 82%
    Voir plus